GFSSW_sfc_dewp_273.txt.gz
Dewpoint
57 57 57 58 58 58 58 58 58 58 58 59 59 59 59 59 58 47 27 38 41 61 58 24 21 24 25 24 16 14 17 15 12 14 23 45 48 51 56 56 60 59 59 62 64
57 57 57 57 58 58 58 58 58 58 58 58 59 59 58 59 48 35 48 60 64 63 19 20 18 25 24 21 20 19 18 13 12 16 52 54 52 51 53 56 59 62 64 64 65
56 57 57 57 57 58 57 57 57 58 58 59 58 58 58 57 32 29 62 64 65 59 24 24 24 23 22 18 16 14 20 15 43 40 50 53 55 56 53 55 58 61 62 63 63
55 56 56 57 57 57 57 57 57 57 59 58 58 58 58 49 21 29 66 66 66 34 22 19 22 20 18 14 17 18 51 51 52 51 52 54 57 57 58 59 61 61 61 61 61
55 55 56 56 57 57 57 57 57 57 57 57 58 58 47 23 22 36 65 62 35 24 19 20 20 19 14 13 16 34 50 53 53 54 54 55 56 57 58 60 60 60 59 59 60
56 55 55 56 56 57 57 57 56 56 57 57 58 58 33 20 26 38 44 37 28 23 21 22 19 19 16 13 22 51 52 53 53 52 53 54 54 55 57 58 58 59 59 59 59
55 55 55 55 56 56 57 56 56 56 56 57 58 50 30 18 28 35 33 24 27 22 21 23 21 18 17 14 48 49 48 49 52 49 51 52 52 54 56 56 56 57 58 57 58
55 55 54 55 56 56 57 56 56 56 56 57 57 44 27 24 30 32 33 30 25 25 24 23 19 16 13 17 22 23 32 40 50 52 51 50 50 54 55 55 56 57 58 58 58
54 54 54 54 55 56 56 55 55 56 56 57 45 35 25 39 31 30 31 24 22 22 21 17 17 20 21 21 24 42 36 44 47 53 51 50 52 54 54 54 55 56 57 57 57
54 54 54 54 55 55 54 55 56 55 55 51 44 35 29 28 30 30 26 25 22 18 18 21 21 23 23 23 20 28 43 46 47 50 51 51 52 52 52 51 52 53 55 56 56
54 53 54 54 54 54 51 46 38 38 42 33 32 31 29 30 32 24 20 18 16 22 18 24 20 23 25 25 33 43 45 46 49 50 48 49 50 51 51 50 50 51 52 53 55
53 53 53 54 54 54 45 36 35 36 34 35 35 33 33 32 29 26 16 16 22 22 23 23 23 23 28 41 43 44 44 46 49 49 49 48 49 50 51 50 51 52 53 53 55
52 53 53 53 53 46 35 33 38 36 35 34 32 32 31 32 23 20 17 18 26 26 26 25 24 24 25 31 30 33 36 45 45 48 48 47 46 48 51 51 52 52 53 54 53
52 53 53 52 44 32 31 32 37 37 35 32 33 30 30 26 21 20 17 20 23 26 28 26 27 26 25 23 24 25 34 43 46 42 38 45 35 46 48 48 51 51 51 52 53
52 53 53 52 36 32 34 37 37 43 23 28 23 25 19 19 20 20 28 30 29 25 29 27 30 28 26 27 26 29 44 45 45 37 41 44 38 44 47 47 49 50 51 52 52
52 53 52 44 37 28 34 40 42 34 29 28 21 17 18 19 19 21 31 32 33 33 33 31 34 30 30 28 29 44 42 32 44 30 27 41 39 42 46 46 48 49 50 50 49
52 52 47 39 28 33 41 42 34 30 32 27 24 18 25 26 26 32 34 35 30 31 29 29 29 29 29 26 28 30 30 23 21 21 23 42 39 43 46 49 48 48 49 48 47
51 50 48 40 42 43 44 39 34 29 27 29 30 30 31 33 34 35 34 33 36 30 31 30 27 28 28 29 28 29 30 24 22 22 22 40 34 44 48 49 49 49 48 47 46
50 48 46 46 44 45 42 35 29 31 28 28 28 29 31 33 33 36 36 36 33 37 31 31 29 30 29 28 31 30 27 30 29 30 28 35 39 47 48 48 48 47 46 47 46
52 45 43 46 45 46 39 34 32 34 28 28 29 31 31 34 34 36 35 38 39 37 38 36 31 31 29 31 30 31 33 26 28 22 17 30 36 40 44 45 48 46 46 45 45
51 43 43 45 45 42 35 34 33 27 31 31 31 33 32 34 37 36 35 36 40 39 38 35 35 31 32 33 32 30 30 34 34 34 25 25 35 45 46 47 47 47 45 44 44
47 38 45 46 40 40 36 36 37 30 34 34 34 38 34 38 37 33 35 39 45 37 34 38 37 32 31 35 40 41 39 37 33 33 38 37 37 46 47 47 46 45 44 42 41
46 45 47 48 37 37 37 32 37 36 40 37 38 41 42 39 37 34 36 41 44 44 39 40 38 28 29 32 36 40 40 40 39 39 37 33 38 44 48 47 48 44 40 39 39
44 40 44 43 42 38 35 34 35 38 40 41 40 40 41 40 42 38 38 41 45 44 49 49 41 33 26 32 36 38 36 40 38 34 37 37 37 41 43 45 44 41 38 38 38
44 42 43 38 39 38 36 34 33 35 41 41 39 40 40 39 39 39 40 39 39 46 42 45 39 41 42 41 40 38 36 35 35 38 34 35 34 40 42 43 41 39 38 37 37
43 42 43 45 44 38 41 39 36 41 42 38 39 39 39 40 38 39 39 39 38 40 43 44 42 42 40 40 37 36 36 36 37 37 35 36 36 40 40 39 38 37 36 35 36
46 48 45 44 43 39 41 39 36 43 43 42 41 36 36 40 41 42 41 43 43 41 43 43 43 39 36 39 39 36 40 38 37 37 37 36 39 40 39 38 38 37 37 37 39

GFSSW_sfc_dewp_276.txt.gz
Dewpoint
57 58 58 58 58 58 58 58 59 59 59 59 59 59 59 59 58 48 28 36 42 64 58 21 21 21 22 19 19 16 16 14 13 18 35 46 48 54 56 59 60 59 60 62 63
57 57 57 58 58 58 58 58 58 58 58 59 59 59 59 59 42 30 48 59 64 64 20 18 18 23 21 21 21 17 19 16 34 26 43 49 48 51 53 57 61 62 63 63 63
56 56 57 57 57 58 58 58 58 58 59 59 58 58 59 56 37 25 66 63 65 56 22 21 21 23 18 17 17 39 39 36 37 44 48 52 54 53 54 57 60 61 62 63 63
55 56 56 57 57 57 57 57 57 58 58 58 58 58 59 46 21 28 66 66 66 41 21 19 19 18 15 15 18 42 46 43 44 46 49 53 56 57 58 60 61 61 61 60 60
55 55 56 56 57 57 57 57 57 57 57 57 58 58 47 27 22 40 63 61 40 24 19 18 16 17 14 19 39 46 48 49 50 52 54 55 55 57 58 59 60 59 59 59 60
56 55 55 55 56 56 57 57 56 57 57 57 58 58 34 21 27 37 34 30 23 20 19 19 17 16 15 20 29 48 49 49 50 51 52 53 54 55 58 59 58 58 58 59 59
55 55 55 55 56 56 57 56 56 56 57 57 57 46 29 20 25 31 34 26 22 22 19 20 19 18 26 44 47 48 46 47 48 49 50 50 52 54 56 57 57 57 57 57 58
55 55 54 55 55 56 56 56 56 56 56 57 57 39 28 23 28 30 30 30 27 23 22 21 20 16 21 44 42 34 33 36 48 49 48 48 50 53 54 55 56 57 57 57 58
55 54 54 54 55 55 56 55 56 56 57 56 46 36 23 40 29 27 28 21 21 22 22 17 19 19 27 27 28 29 32 38 43 50 48 48 50 53 54 54 55 56 56 57 56
54 54 54 54 54 55 55 55 57 56 53 46 39 35 26 25 29 31 27 25 18 18 19 21 19 21 20 20 19 30 35 40 42 47 49 49 50 51 52 52 53 53 55 55 55
54 54 54 54 55 54 52 47 43 42 42 31 30 30 25 28 31 25 19 19 16 19 20 23 19 22 25 26 28 31 36 41 45 47 45 47 49 50 49 49 50 51 52 54 55
53 54 54 54 54 54 49 34 35 35 30 34 33 33 31 31 23 21 18 18 23 22 24 21 25 27 32 31 31 33 37 42 46 48 46 46 47 49 48 48 50 51 52 52 53
53 53 54 54 53 51 35 33 36 36 33 30 32 30 28 29 19 18 19 26 25 22 22 22 23 28 30 30 28 29 29 38 37 46 46 47 46 48 50 51 51 52 52 52 52
53 53 53 53 44 35 33 34 36 37 25 21 24 28 28 24 19 19 18 23 25 23 24 25 25 25 25 25 26 26 27 34 42 39 30 44 28 45 49 49 50 50 51 50 52
53 53 53 49 38 32 32 38 35 43 19 22 19 23 19 19 19 21 30 29 25 25 29 28 28 27 27 25 26 30 34 34 38 35 36 39 35 41 45 47 49 50 50 51 50
53 53 52 43 38 27 35 41 42 33 24 21 18 17 17 18 19 27 31 33 33 28 30 30 29 27 27 27 32 38 37 36 38 32 25 34 32 38 44 46 47 50 50 50 48
52 52 46 36 32 39 40 37 34 29 30 23 17 17 19 21 26 26 31 33 29 30 30 29 28 28 29 28 34 33 32 23 21 18 20 37 30 46 48 48 47 49 49 49 48
51 51 47 43 42 43 40 35 32 26 27 28 25 23 24 30 31 32 32 30 34 31 27 27 27 27 28 30 30 30 31 24 21 18 18 33 31 46 48 48 49 49 48 48 50
50 48 45 44 44 44 36 35 31 29 26 27 27 24 28 30 29 32 36 34 34 37 33 31 30 28 28 29 30 30 27 29 28 26 21 24 44 46 47 48 48 47 47 47 47
49 44 41 45 46 41 36 32 30 29 29 28 29 30 30 33 31 31 34 37 35 36 39 35 32 30 30 32 31 31 30 26 24 23 18 19 32 39 43 45 47 46 46 46 46
51 33 43 44 44 34 31 31 28 28 30 30 30 29 30 32 34 34 35 35 37 36 37 36 35 33 32 34 33 28 26 30 33 28 25 25 38 43 44 46 46 44 45 45 46
49 31 42 46 27 41 30 34 36 30 31 32 34 36 35 37 33 33 36 39 42 38 36 40 39 31 31 35 36 37 37 37 33 33 36 33 40 44 44 45 46 45 45 44 42
42 39 43 47 25 34 37 33 36 31 37 32 33 38 39 37 35 35 37 39 41 43 42 41 37 28 32 34 36 37 36 37 39 39 34 27 37 42 44 43 44 43 42 41 40
44 33 38 41 43 37 34 32 33 38 38 39 37 37 34 34 39 37 37 37 42 40 50 48 39 32 26 33 36 35 34 34 36 33 32 32 31 37 41 41 43 42 40 39 38
45 43 44 36 38 39 39 35 31 34 38 39 37 36 34 35 34 37 38 36 36 43 43 43 38 38 37 37 36 35 34 34 34 34 32 31 32 39 41 41 41 41 38 37 36
44 43 46 44 44 39 41 38 36 39 39 37 37 39 39 40 40 37 39 41 37 39 42 45 39 39 38 37 34 34 34 33 33 34 32 33 37 40 41 41 39 39 37 36 37
50 51 47 44 41 38 41 39 39 40 41 40 39 36 38 40 41 41 42 43 43 40 43 42 42 37 33 36 35 34 36 34 34 34 36 35 39 41 41 40 40 39 37 37 37

GFSSW_sfc_dewp_279.txt.gz
Dewpoint
58 58 58 58 58 58 58 59 59 59 59 59 59 59 59 59 57 50 32 39 44 64 55 24 22 21 19 18 17 17 16 15 16 25 33 41 47 55 57 59 60 59 59 59 59
57 57 58 58 58 58 59 59 59 59 59 59 59 59 59 59 43 27 45 62 61 65 27 17 17 18 19 20 19 21 19 26 28 31 37 41 48 53 55 57 59 59 59 60 61
56 56 57 57 58 58 58 58 59 59 59 59 59 59 59 56 40 28 66 64 62 56 29 19 19 21 19 18 18 33 31 28 36 43 46 49 50 52 55 59 60 61 61 62 62
55 56 56 57 57 57 58 58 58 58 59 59 58 59 59 45 24 33 67 64 66 40 25 18 19 18 18 18 32 35 38 35 40 42 46 52 56 58 59 59 60 59 60 60 60
55 55 55 56 56 57 57 57 58 58 58 58 58 59 46 37 23 40 65 59 37 29 18 18 16 17 16 30 34 39 41 43 48 50 52 54 55 57 58 59 59 59 59 59 60
55 55 55 55 56 57 57 57 57 57 57 58 59 58 46 26 25 30 24 27 23 19 17 17 15 16 17 18 26 42 43 45 47 49 51 52 54 55 58 58 58 58 58 58 59
56 55 55 55 56 56 57 57 56 57 57 57 58 45 34 22 23 28 26 21 19 19 18 18 16 17 27 35 40 43 42 44 46 47 50 50 52 54 57 57 56 57 57 58 58
56 55 54 55 55 56 57 57 57 57 57 57 58 43 27 22 23 22 23 22 21 19 18 18 17 16 24 40 41 38 37 40 43 44 45 44 49 54 55 56 56 56 56 57 57
55 55 54 54 55 55 56 56 56 56 57 57 48 43 22 38 25 19 20 18 16 17 19 17 18 18 32 35 31 31 40 34 39 43 42 42 50 52 54 55 55 56 55 55 56
55 55 55 54 54 55 55 55 56 54 53 45 41 35 23 20 19 17 20 20 17 18 19 19 16 17 21 21 24 39 34 28 32 40 42 43 47 50 52 52 54 53 54 54 54
55 55 55 55 54 55 51 46 43 45 44 32 26 22 21 22 23 23 20 19 20 21 20 21 16 19 23 26 25 25 26 30 36 41 39 43 45 48 49 51 51 51 52 53 53
54 54 55 55 54 55 50 35 33 32 29 24 26 25 24 25 21 21 21 19 21 21 20 18 23 25 24 24 24 25 26 42 39 41 40 42 44 47 48 48 50 50 52 54 54
54 54 54 54 53 50 39 32 32 34 32 21 21 21 21 23 19 20 20 23 23 20 20 22 23 26 24 23 23 28 27 26 28 35 40 41 43 48 48 50 50 51 52 52 53
54 54 54 53 44 34 32 33 32 35 26 20 19 22 21 21 20 21 21 23 21 19 19 21 21 21 21 24 25 26 28 26 28 33 25 43 30 47 48 49 49 49 51 52 52
53 54 54 52 45 30 32 33 33 40 21 18 18 20 18 17 20 22 27 23 23 21 21 26 23 24 24 25 27 28 31 30 29 31 33 33 43 46 51 49 49 51 51 52 49
53 54 53 44 41 30 32 35 39 35 22 18 15 14 15 14 15 23 25 25 24 22 25 26 25 26 26 27 29 32 30 29 28 29 33 37 37 45 46 46 49 51 51 48 47
53 52 49 35 32 32 33 34 35 28 24 17 13 14 16 18 19 24 25 27 28 27 34 26 26 27 28 28 30 32 30 22 21 17 18 34 29 44 46 46 48 50 49 49 47
52 51 47 36 33 33 34 35 34 23 24 24 17 15 19 22 24 24 25 27 28 27 26 27 32 29 29 30 30 28 30 24 24 16 16 22 38 43 46 48 49 49 48 45 48
50 47 37 39 38 37 36 30 30 27 25 22 19 20 22 21 24 26 29 31 33 34 31 28 30 29 29 30 31 30 26 27 26 26 19 34 43 44 46 47 47 46 45 45 45
48 35 34 37 42 37 37 35 31 27 28 26 26 28 27 27 25 25 31 35 34 35 37 35 31 31 31 33 31 28 25 26 23 22 19 31 37 39 41 43 45 45 44 44 44
49 32 35 36 35 33 31 32 28 28 29 30 29 28 29 29 29 30 33 36 37 36 37 37 36 32 32 34 29 28 28 32 32 34 24 22 38 41 39 40 42 43 43 41 42
40 31 35 37 28 27 32 32 35 29 30 31 33 32 32 30 30 28 35 39 40 38 35 38 36 30 28 32 31 33 34 36 33 31 30 27 41 40 39 39 39 41 40 40 40
38 34 35 40 27 25 34 31 31 31 31 30 31 32 30 30 32 31 36 36 38 41 43 40 39 30 32 35 34 33 32 33 35 39 35 26 37 39 40 38 40 39 39 40 40
40 32 32 34 39 34 31 30 33 32 32 31 29 28 28 29 31 32 34 35 37 37 50 48 38 33 27 32 31 31 31 30 34 31 28 32 28 37 36 35 37 38 39 37 38
41 40 45 31 33 36 36 29 28 30 32 31 30 26 29 32 30 32 35 35 35 43 41 43 35 34 32 31 31 30 29 30 30 30 30 29 34 38 39 36 37 38 37 36 36
42 41 43 41 41 35 40 33 31 34 33 32 30 30 34 38 36 37 36 37 38 38 41 40 38 37 33 30 29 29 29 29 29 30 31 31 37 39 37 38 38 37 37 35 35
48 51 48 43 36 34 38 36 34 37 37 35 33 33 37 39 39 40 42 42 43 40 41 40 40 38 39 30 30 33 33 31 30 31 33 32 34 35 37 39 39 39 37 34 37

GFSSW_sfc_dewp_285.txt.gz
Dewpoint
58 58 59 59 59 59 59 59 59 59 59 59 59 59 59 59 58 49 43 42 44 62 61 27 28 30 28 21 19 20 26 26 29 44 52 54 57 61 60 58 59 60 60 60 61
57 57 58 59 59 59 59 59 59 59 59 59 59 59 59 59 48 36 50 61 62 61 28 23 26 23 16 16 18 29 33 36 34 48 52 52 49 55 59 58 59 60 61 62 62
56 57 58 58 59 59 59 59 59 59 59 59 59 59 59 57 43 32 65 63 63 56 33 28 27 25 17 19 28 36 31 41 49 57 53 53 53 55 57 57 59 59 59 61 61
56 56 57 58 58 58 58 59 59 59 59 59 59 58 59 50 31 29 65 65 65 45 33 29 29 21 17 19 23 34 40 53 54 56 56 56 57 57 57 58 59 59 59 60 60
57 56 57 57 57 58 58 58 59 59 59 58 58 59 46 41 36 41 66 63 45 33 27 26 26 20 17 21 25 35 46 53 53 55 56 56 56 56 58 59 60 59 59 60 60
57 57 57 57 57 57 57 57 57 57 58 58 59 59 49 36 26 37 43 40 31 29 26 23 17 16 16 33 41 43 48 49 48 51 55 55 55 55 58 59 58 58 58 58 58
57 56 56 56 57 57 57 57 57 57 58 58 59 51 38 34 23 24 29 23 23 23 17 18 18 17 17 39 44 42 41 46 46 48 51 51 51 54 57 57 57 57 57 57 57
56 56 56 56 56 57 57 57 57 57 58 59 59 46 38 38 33 19 20 18 19 15 17 17 17 16 18 40 39 40 48 44 45 44 50 46 44 54 57 55 55 55 55 55 55
56 56 56 56 56 57 57 56 57 58 58 59 52 44 39 39 15 20 21 19 19 16 15 13 18 16 16 37 38 40 41 43 45 47 48 48 49 53 56 55 54 54 54 53 53
56 56 55 56 56 56 55 56 57 56 56 47 44 39 39 27 20 21 19 21 19 17 18 17 17 15 15 32 28 38 40 42 43 44 45 46 47 55 55 54 54 53 53 53 52
55 55 55 55 55 55 52 48 44 46 44 40 38 34 21 18 14 17 19 19 20 21 21 22 12 12 18 29 27 37 40 41 42 44 42 50 53 54 55 55 53 53 52 52 53
55 55 55 55 55 55 51 43 44 32 31 37 37 30 21 19 20 19 19 19 22 21 22 21 20 28 23 19 22 31 30 35 38 40 45 46 47 53 53 54 54 52 52 52 53
55 55 55 55 54 50 42 41 41 29 33 30 28 22 20 22 22 21 20 20 21 21 22 25 28 28 21 24 25 28 27 26 26 30 48 46 45 48 53 53 55 54 54 54 55
54 54 55 55 46 40 37 39 36 37 34 24 17 23 20 21 28 23 22 21 22 23 24 27 29 22 20 25 26 25 30 30 29 26 26 40 40 47 48 50 54 53 54 53 54
54 54 54 53 49 30 34 30 41 39 33 20 17 21 17 19 20 20 23 22 25 22 22 28 31 28 25 25 26 28 27 28 26 26 31 41 43 47 47 46 51 53 53 53 48
54 54 54 48 46 34 29 29 38 37 37 22 18 17 15 17 18 22 27 31 27 32 32 33 35 36 37 32 29 28 31 30 28 27 33 41 42 44 47 49 50 49 47 47 48
53 53 50 41 40 32 31 37 35 37 39 25 15 12 14 17 22 25 27 31 31 30 29 36 37 38 35 33 32 31 29 26 24 23 35 41 41 45 49 50 50 48 48 48 47
52 51 49 29 22 28 39 38 39 37 36 34 13 12 16 23 25 25 33 34 34 32 30 30 36 37 38 35 31 29 28 23 19 22 26 41 41 43 48 50 49 49 48 47 48
50 51 48 49 40 37 39 37 38 39 25 25 16 17 24 31 30 31 37 37 34 35 36 32 34 36 35 31 29 28 28 29 24 26 34 41 43 47 48 49 48 46 46 46 46
52 50 48 44 42 41 40 40 40 32 27 29 34 35 35 33 33 36 42 43 38 39 38 38 33 33 25 35 32 29 32 30 33 29 30 38 38 41 43 44 44 45 45 45 43
54 48 44 33 42 41 38 40 38 27 29 35 34 36 36 37 36 37 41 38 38 39 41 39 37 34 32 33 31 31 30 34 34 35 34 33 38 41 39 41 41 40 39 38 36
55 46 38 36 36 41 36 39 34 30 32 34 37 37 35 36 35 37 36 37 42 42 42 43 36 38 34 37 35 31 32 34 33 32 38 37 38 39 39 41 40 40 39 37 37
52 50 39 40 40 41 38 31 32 31 33 34 34 34 34 38 34 37 37 36 41 43 43 43 40 31 34 37 37 30 29 34 34 36 34 33 38 38 40 39 39 38 38 38 38
54 47 42 41 42 41 39 34 33 31 30 30 30 30 33 33 35 33 38 39 43 42 53 50 39 36 31 31 32 31 29 30 32 29 34 37 38 39 38 39 38 36 37 38 39
56 47 50 44 42 43 41 36 32 34 37 34 35 37 39 40 40 39 39 37 41 46 44 45 42 38 31 28 28 27 27 28 28 31 34 36 35 37 38 39 38 37 37 38 38
53 50 52 44 42 41 41 40 37 34 37 37 37 38 42 39 38 38 40 44 43 44 42 44 39 42 38 34 36 32 29 29 33 31 30 33 34 39 41 40 39 37 37 38 38
55 56 55 43 40 39 38 37 39 40 37 42 44 42 40 37 37 36 38 39 40 41 42 40 39 41 37 37 36 35 33 30 33 31 33 32 32 36 39 39 39 38 38 38 39

GFSSW_sfc_dewp_288.txt.gz
Dewpoint
57 59 59 59 59 59 59 59 59 59 59 59 59 59 59 59 58 51 40 39 47 63 59 28 30 29 29 27 22 23 24 42 47 49 52 53 55 58 60 58 60 61 61 62 64
57 58 58 58 58 58 58 59 59 59 59 59 59 59 59 59 49 40 48 61 62 65 30 23 24 27 24 20 18 21 33 42 48 51 49 53 55 58 58 59 60 60 61 62 62
56 57 58 58 58 58 58 58 59 59 59 59 59 59 58 58 39 36 64 64 63 57 34 32 28 30 22 18 40 46 44 53 53 54 53 50 54 58 57 56 58 58 60 61 62
56 56 57 57 57 58 58 58 58 59 59 59 58 58 59 50 26 29 65 65 65 47 30 25 27 24 19 31 51 53 56 56 53 54 54 56 57 57 57 58 60 60 60 60 59
57 56 57 57 57 57 57 58 58 58 58 58 58 59 45 35 35 39 67 63 44 31 25 25 25 23 32 52 52 52 55 56 56 57 57 57 56 57 58 59 60 59 59 59 58
56 57 56 56 56 57 57 57 57 57 57 58 58 59 45 32 35 40 36 42 30 29 27 26 25 24 41 42 47 49 51 55 56 56 55 55 56 56 58 58 58 58 58 58 57
56 56 56 56 56 56 56 56 56 57 57 58 59 51 41 25 32 33 36 28 26 25 24 19 18 16 33 40 46 46 45 51 55 55 54 54 53 54 57 57 56 56 56 56 55
56 56 56 56 56 56 57 56 56 57 58 58 59 48 33 36 38 25 26 23 20 19 16 16 17 15 38 40 40 38 45 40 44 50 51 49 48 56 56 55 55 55 54 54 54
56 56 56 56 56 56 56 56 56 57 58 58 50 42 36 44 17 23 20 19 19 19 18 14 16 15 24 33 34 40 36 38 41 47 48 48 52 55 56 55 54 53 53 52 53
56 55 55 55 56 56 55 55 55 55 56 50 46 37 35 31 18 21 21 22 21 19 19 17 16 13 13 27 17 35 37 41 41 45 48 51 51 53 55 55 54 53 52 52 52
55 55 55 55 55 54 51 50 42 39 44 37 34 30 32 29 21 19 20 22 23 21 19 21 15 12 10 16 26 39 38 36 42 50 45 45 47 51 53 54 53 53 53 52 52
55 55 55 55 55 54 49 41 44 33 29 37 39 35 36 29 18 17 20 18 24 18 25 21 18 18 21 34 37 38 39 41 46 47 47 48 48 51 53 53 53 52 51 51 53
55 55 55 55 53 45 36 36 40 37 31 33 33 30 26 21 22 22 18 19 19 19 21 19 20 25 26 26 27 28 28 30 41 46 46 46 47 50 53 54 54 54 53 53 54
54 54 54 54 43 38 37 38 38 37 34 33 23 22 21 22 24 23 21 21 23 18 25 28 29 26 28 26 25 24 28 27 32 36 40 45 41 46 48 51 54 54 53 53 54
54 54 54 53 38 19 28 28 27 38 32 36 17 21 19 18 23 21 23 24 24 31 31 34 32 32 31 30 28 29 31 27 29 28 37 42 42 46 47 49 52 53 53 51 51
53 54 53 45 43 28 28 28 38 38 33 35 18 18 19 19 20 21 27 30 31 34 34 35 36 35 35 34 31 33 27 28 26 30 36 41 40 40 46 49 50 50 50 49 49
53 53 50 43 30 32 31 42 34 34 39 35 17 17 15 16 20 27 33 32 29 26 29 33 37 36 35 32 31 28 26 23 20 30 36 41 39 40 48 50 48 47 47 48 47
52 51 46 33 25 28 37 37 33 35 37 38 37 14 15 32 33 38 37 33 36 34 31 31 33 35 37 36 31 27 26 24 21 20 37 41 40 42 49 50 48 48 47 46 45
50 46 43 43 43 36 36 33 34 39 37 32 29 32 32 33 36 40 40 41 39 37 35 32 33 36 34 29 28 28 28 29 25 33 37 40 43 47 50 50 48 46 46 43 40
42 43 44 44 41 39 35 35 38 42 32 34 35 35 33 34 32 38 40 39 39 41 39 38 31 35 32 34 32 30 32 29 32 28 32 37 37 41 46 46 45 44 44 41 40
46 43 45 46 39 36 30 34 38 30 34 35 36 34 34 34 37 37 39 38 41 42 38 37 32 32 35 34 29 29 30 32 34 35 32 32 38 43 43 44 43 43 40 39 38
49 40 45 33 26 35 30 34 36 33 34 36 36 35 36 33 35 35 35 37 43 42 36 39 36 35 36 38 32 31 32 33 30 32 36 35 38 40 42 41 39 38 36 37 38
44 46 43 36 34 37 38 34 32 31 31 32 30 31 29 34 33 37 37 40 41 42 40 39 36 27 30 32 33 29 31 32 32 35 34 33 36 40 40 39 39 37 37 38 38
48 39 45 40 41 36 34 35 30 32 31 33 34 33 38 38 39 38 37 42 45 43 53 46 40 33 29 30 32 30 30 32 33 35 36 37 37 38 39 38 36 37 38 38 39
49 42 45 37 34 38 37 37 33 34 36 37 39 39 37 36 37 37 41 39 41 45 42 44 38 37 34 30 30 30 31 32 33 35 35 36 35 37 38 37 36 37 38 38 38
46 48 50 46 36 33 36 36 38 41 41 42 39 38 36 34 35 34 37 41 43 42 40 41 36 39 37 33 32 32 31 30 30 32 33 35 35 39 39 37 36 38 38 38 38
52 52 53 47 36 37 37 40 41 42 43 44 41 39 37 38 37 33 34 37 39 41 40 39 38 38 37 39 38 34 37 37 36 37 34 31 34 40 38 37 37 38 38 39 39

GFSSW_sfc_dewp_291.txt.gz
Dewpoint
57 57 58 59 58 59 59 59 59 59 58 59 59 59 59 59 58 52 37 38 46 63 55 33 37 31 29 27 24 23 41 44 46 46 49 53 55 60 60 58 60 62 61 62 62
56 57 57 58 58 58 58 58 58 58 59 59 59 59 59 59 50 40 47 62 65 64 27 23 22 26 25 24 21 31 40 45 49 50 50 53 57 57 58 57 58 59 61 61 62
56 56 57 58 58 58 57 58 58 58 59 59 59 58 58 58 38 34 62 66 65 62 33 32 30 28 21 47 53 54 45 51 50 51 53 53 57 58 56 55 58 58 60 61 61
56 56 56 57 57 57 57 57 58 57 59 58 58 58 59 52 28 30 67 66 65 42 30 23 24 35 52 49 54 51 56 54 53 53 54 56 57 57 57 59 60 59 59 59 59
56 56 56 57 57 57 57 57 57 57 58 58 58 58 49 33 28 45 66 64 42 29 24 23 24 45 51 52 52 54 56 54 56 56 56 57 56 55 57 59 59 59 59 57 58
56 56 56 56 56 56 56 56 56 57 57 57 58 59 42 23 31 45 39 38 28 26 26 26 35 51 51 49 48 53 56 56 55 55 56 55 55 54 58 58 57 57 56 56 56
56 56 56 56 56 56 56 56 55 56 57 58 58 54 40 20 32 33 35 31 27 25 23 25 28 30 42 48 50 55 53 55 54 55 54 53 53 53 56 56 56 55 55 54 55
56 56 56 56 56 56 56 56 56 56 57 57 58 48 32 31 39 27 29 25 24 24 21 18 17 21 39 47 52 44 50 49 54 53 54 50 50 55 56 55 54 54 53 53 54
56 56 56 56 56 56 56 55 56 57 57 57 50 41 34 43 27 32 23 21 19 21 23 15 16 16 33 35 33 39 32 44 47 50 49 49 51 53 56 55 54 53 52 52 52
56 55 55 55 56 55 55 55 55 55 56 52 46 36 32 29 25 22 23 24 23 20 18 18 16 13 15 16 10 16 35 42 44 50 51 51 51 52 53 54 53 52 52 51 52
55 55 55 55 55 55 51 48 41 37 44 29 28 28 29 31 24 18 22 20 23 20 17 21 17 16 15 16 21 36 43 45 46 48 47 46 48 50 51 53 52 52 52 51 52
55 55 55 55 55 54 49 36 42 37 34 37 38 36 35 34 25 15 20 19 23 17 22 18 17 21 23 32 37 40 44 45 46 45 45 46 48 50 53 52 53 52 52 51 52
54 54 54 54 54 46 33 31 38 35 31 31 34 34 30 32 26 21 16 20 19 19 19 17 18 26 33 31 31 32 34 44 44 47 47 47 47 49 53 54 54 53 52 52 53
54 54 54 53 41 37 32 37 29 36 34 31 25 24 22 21 23 23 18 19 22 22 23 28 31 28 27 26 26 25 39 45 44 43 41 45 40 45 48 50 53 53 53 52 52
54 54 53 53 37 17 26 25 31 38 30 36 23 19 19 19 21 21 23 24 31 33 30 33 33 31 30 29 30 29 44 43 43 43 41 42 42 45 48 48 52 52 52 51 52
54 53 53 47 43 25 29 28 39 35 30 33 30 19 18 19 18 29 33 31 35 32 34 35 37 35 32 30 30 30 27 27 31 38 35 39 38 39 45 46 51 50 50 50 50
53 53 51 42 21 27 33 41 33 30 36 33 27 18 16 21 31 34 36 35 31 25 28 32 35 37 36 33 31 27 25 23 22 34 35 41 38 39 45 50 50 49 49 49 47
52 51 47 38 27 32 38 36 32 34 37 38 36 23 20 36 38 39 39 37 38 33 32 32 32 35 34 32 28 28 27 25 23 30 35 40 38 40 48 50 48 48 47 44 41
50 46 43 40 39 36 36 32 33 37 37 34 34 32 32 33 37 40 38 40 39 38 34 31 32 34 32 32 31 31 28 29 31 37 35 39 43 48 49 48 47 46 45 41 40
40 42 42 43 39 38 33 33 36 40 37 35 32 35 33 33 35 38 37 37 39 41 39 38 30 34 35 32 30 30 32 26 32 29 30 35 36 39 46 46 45 45 41 39 40
46 41 43 44 37 33 28 31 37 33 36 34 33 33 34 35 37 38 36 37 40 41 38 35 30 33 36 33 29 30 29 33 34 34 32 30 34 41 45 46 45 44 42 39 38
47 33 43 33 27 35 28 32 36 33 34 34 32 33 33 35 37 34 36 38 42 40 33 39 36 34 35 37 33 31 32 31 30 32 35 34 34 40 44 46 44 41 39 38 38
42 44 47 33 30 35 35 36 31 31 31 29 34 39 41 39 35 38 39 39 41 40 38 40 33 28 30 30 32 30 31 33 35 36 33 31 33 41 41 40 39 36 37 38 38
45 37 42 42 40 35 33 33 29 37 35 40 35 40 37 37 38 36 37 39 43 43 53 46 38 33 29 30 32 31 33 35 35 33 35 36 36 38 39 38 37 37 38 38 38
46 43 47 34 32 36 36 36 35 36 41 40 37 38 37 34 34 35 40 39 40 47 43 41 37 33 32 33 32 32 33 35 37 37 33 37 37 38 38 36 37 38 38 37 37
46 43 49 46 37 34 39 40 40 42 39 38 37 38 35 34 33 32 36 40 41 41 39 40 37 37 35 33 34 35 35 35 34 31 34 35 35 39 37 37 37 37 38 37 37
52 52 47 45 44 37 39 40 42 42 40 42 41 39 35 37 38 33 38 44 45 41 39 39 40 39 34 39 37 36 39 35 35 36 33 31 34 38 37 37 37 38 38 38 39